owner,sensor,date,latitude,longitude,vertical_datum,mass_concentration_of_oxygen_in_sea_water,qcFlag 
DISL,ioos:station:DISL:MHPA:1,2015-12-01T00:00:00Z,30.6671,-87.9365,1.29,9.31,1111122 
DISL,ioos:station:DISL:MHPA:1,2015-12-01T00:30:00Z,30.6671,-87.9365,1.289,9.18,1111122 
DISL,ioos:station:DISL:MHPA:1,2015-12-01T01:00:00Z,30.6671,-87.9365,1.301,8.5,1111122 
DISL,ioos:station:DISL:MHPA:1,2015-12-01T01:30:00Z,30.6671,-87.9365,1.328,8.24,1111122 
DISL,ioos:station:DISL:MHPA:1,2015-12-01T02:00:00Z,30.6671,-87.9365,1.349,8.36,1111122 
DISL,ioos:station:DISL:MHPA:1,2015-12-01T02:30:00Z,30.6671,-87.9365,1.39,8.31,1111122 
DISL,ioos:station:DISL:MHPA:1,2015-12-01T03:00:00Z,30.6671,-87.9365,1.396,8.13,1111122 
DISL,ioos:station:DISL:MHPA:1,2015-12-01T03:30:00Z,30.6671,-87.9365,1.413,7.88,1111122 
DISL,ioos:station:DISL:MHPA:1,2015-12-01T04:00:00Z,30.6671,-87.9365,1.438,8.19,1111122 
DISL,ioos:station:DISL:MHPA:1,2015-12-01T04:30:00Z,30.6671,-87.9365,1.469,8.04,1111122 
DISL,ioos:station:DISL:MHPA:1,2015-12-01T05:00:00Z,30.6671,-87.9365,1.482,8.1,1111122 
DISL,ioos:station:DISL:MHPA:1,2015-12-01T05:30:00Z,30.6671,-87.9365,1.503,8.02,1111122 
DISL,ioos:station:DISL:MHPA:1,2015-12-01T06:00:00Z,30.6671,-87.9365,1.524,8.15,1111122 
DISL,ioos:station:DISL:MHPA:1,2015-12-01T06:30:00Z,30.6671,-87.9365,1.534,8.19,1111122 
DISL,ioos:station:DISL:MHPA:1,2015-12-01T07:00:00Z,30.6671,-87.9365,1.543,8.05,1111122 
DISL,ioos:station:DISL:MHPA:1,2015-12-01T07:30:00Z,30.6671,-87.9365,1.524,8.0,1111122 
DISL,ioos:station:DISL:MHPA:1,2015-12-01T08:00:00Z,30.6671,-87.9365,1.529,8.22,1111122 
DISL,ioos:station:DISL:MHPA:1,2015-12-01T08:30:00Z,30.6671,-87.9365,1.521,7.6,1111122 
DISL,ioos:station:DISL:MHPA:1,2015-12-01T09:00:00Z,30.6671,-87.9365,1.489,7.7,1111122 
DISL,ioos:station:DISL:MHPA:1,2015-12-01T09:30:00Z,30.6671,-87.9365,1.469,7.91,1111122 
DISL,ioos:station:DISL:MHPA:1,2015-12-01T10:00:00Z,30.6671,-87.9365,1.457,7.93,1111122 
DISL,ioos:station:DISL:MHPA:1,2015-12-01T10:30:00Z,30.6671,-87.9365,1.42,7.84,1111122 
DISL,ioos:station:DISL:MHPA:1,2015-12-01T11:00:00Z,30.6671,-87.9365,1.381,7.57,1111122 
DISL,ioos:station:DISL:MHPA:1,2015-12-01T11:30:00Z,30.6671,-87.9365,1.345,7.69,1111122 
DISL,ioos:station:DISL:MHPA:1,2015-12-01T12:00:00Z,30.6671,-87.9365,1.315,7.47,1111122 
DISL,ioos:station:DISL:MHPA:1,2015-12-01T12:30:00Z,30.6671,-87.9365,1.287,6.95,1111122 
DISL,ioos:station:DISL:MHPA:1,2015-12-01T13:00:00Z,30.6671,-87.9365,1.248,7.09,1111122 
DISL,ioos:station:DISL:MHPA:1,2015-12-01T13:30:00Z,30.6671,-87.9365,1.211,7.07,1111122 
DISL,ioos:station:DISL:MHPA:1,2015-12-01T14:00:00Z,30.6671,-87.9365,1.191,7.13,1111122 
DISL,ioos:station:DISL:MHPA:1,2015-12-01T14:30:00Z,30.6671,-87.9365,1.159,7.06,1111122 
DISL,ioos:station:DISL:MHPA:1,2015-12-01T15:00:00Z,30.6671,-87.9365,1.127,6.9,1111122 
DISL,ioos:station:DISL:MHPA:1,2015-12-01T15:30:00Z,30.6671,-87.9365,1.1,6.77,1111122 
DISL,ioos:station:DISL:MHPA:1,2015-12-01T16:00:00Z,30.6671,-87.9365,1.075,6.77,1111122 
DISL,ioos:station:DISL:MHPA:1,2015-12-01T16:30:00Z,30.6671,-87.9365,1.059,6.87,1111122 
DISL,ioos:station:DISL:MHPA:1,2015-12-01T17:00:00Z,30.6671,-87.9365,1.041,6.76,1111122 
DISL,ioos:station:DISL:MHPA:1,2015-12-01T17:30:00Z,30.6671,-87.9365,1.026,6.89,1111122 
DISL,ioos:station:DISL:MHPA:1,2015-12-01T18:00:00Z,30.6671,-87.9365,1.017,6.42,1111122 
DISL,ioos:station:DISL:MHPA:1,2015-12-01T18:30:00Z,30.6671,-87.9365,1.025,7.61,1111122 
DISL,ioos:station:DISL:MHPA:1,2015-12-01T19:00:00Z,30.6671,-87.9365,1.031,8.3,1111122 
DISL,ioos:station:DISL:MHPA:1,2015-12-01T19:30:00Z,30.6671,-87.9365,1.048,8.51,1111122 
DISL,ioos:station:DISL:MHPA:1,2015-12-01T20:00:00Z,30.6671,-87.9365,1.066,8.71,1111122 
DISL,ioos:station:DISL:MHPA:1,2015-12-01T20:30:00Z,30.6671,-87.9365,1.099,8.55,1111122 
DISL,ioos:station:DISL:MHPA:1,2015-12-01T21:00:00Z,30.6671,-87.9365,1.119,8.89,1111122 
DISL,ioos:station:DISL:MHPA:1,2015-12-01T21:30:00Z,30.6671,-87.9365,1.15,8.79,1111122 
DISL,ioos:station:DISL:MHPA:1,2015-12-01T22:00:00Z,30.6671,-87.9365,1.17,8.84,1111122 
DISL,ioos:station:DISL:MHPA:1,2015-12-01T22:30:00Z,30.6671,-87.9365,1.193,9.09,1111122 
DISL,ioos:station:DISL:MHPA:1,2015-12-01T23:00:00Z,30.6671,-87.9365,1.229,9.07,1111122 
DISL,ioos:station:DISL:MHPA:1,2015-12-01T23:30:00Z,30.6671,-87.9365,1.262,9.38,1111122 
DISL,ioos:station:DISL:MHPA:1,2015-12-02T00:00:00Z,30.6671,-87.9365,1.282,9.36,1111122 
DISL,ioos:station:DISL:MHPA:1,2015-12-02T00:30:00Z,30.6671,-87.9365,1.311,9.04,1111122 
DISL,ioos:station:DISL:MHPA:1,2015-12-02T01:00:00Z,30.6671,-87.9365,1.332,8.23,1111122 
DISL,ioos:station:DISL:MHPA:1,2015-12-02T01:30:00Z,30.6671,-87.9365,1.348,8.1,1111122 
DISL,ioos:station:DISL:MHPA:1,2015-12-02T02:00:00Z,30.6671,-87.9365,1.377,7.88,1111122 
DISL,ioos:station:DISL:MHPA:1,2015-12-02T02:30:00Z,30.6671,-87.9365,1.4,7.87,1111122 
DISL,ioos:station:DISL:MHPA:1,2015-12-02T03:00:00Z,30.6671,-87.9365,1.421,8.18,1111122 
DISL,ioos:station:DISL:MHPA:1,2015-12-02T03:30:00Z,30.6671,-87.9365,1.438,8.29,1111122 
DISL,ioos:station:DISL:MHPA:1,2015-12-02T04:00:00Z,30.6671,-87.9365,1.448,8.29,1111122 
DISL,ioos:station:DISL:MHPA:1,2015-12-02T04:30:00Z,30.6671,-87.9365,1.453,8.1,1111122 
DISL,ioos:station:DISL:MHPA:1,2015-12-02T05:00:00Z,30.6671,-87.9365,1.467,8.06,1111122 
DISL,ioos:station:DISL:MHPA:1,2015-12-02T05:30:00Z,30.6671,-87.9365,1.479,8.31,1111122 
DISL,ioos:station:DISL:MHPA:1,2015-12-02T06:00:00Z,30.6671,-87.9365,1.485,7.59,1111122 
DISL,ioos:station:DISL:MHPA:1,2015-12-02T06:30:00Z,30.6671,-87.9365,1.493,7.48,1111122 
DISL,ioos:station:DISL:MHPA:1,2015-12-02T07:00:00Z,30.6671,-87.9365,1.513,7.57,1111122 
DISL,ioos:station:DISL:MHPA:1,2015-12-02T07:30:00Z,30.6671,-87.9365,1.508,7.91,1111122 
DISL,ioos:station:DISL:MHPA:1,2015-12-02T08:00:00Z,30.6671,-87.9365,1.507,7.9,1111122 
DISL,ioos:station:DISL:MHPA:1,2015-12-02T08:30:00Z,30.6671,-87.9365,1.505,7.92,1111122 
DISL,ioos:station:DISL:MHPA:1,2015-12-02T09:00:00Z,30.6671,-87.9365,1.481,7.96,1111122 
DISL,ioos:station:DISL:MHPA:1,2015-12-02T09:30:00Z,30.6671,-87.9365,1.463,8.0,1111122 
DISL,ioos:station:DISL:MHPA:1,2015-12-02T10:00:00Z,30.6671,-87.9365,1.432,7.94,1111122 
DISL,ioos:station:DISL:MHPA:1,2015-12-02T10:30:00Z,30.6671,-87.9365,1.414,7.43,1111122 
DISL,ioos:station:DISL:MHPA:1,2015-12-02T11:00:00Z,30.6671,-87.9365,1.381,7.6,1111122 
DISL,ioos:station:DISL:MHPA:1,2015-12-02T11:30:00Z,30.6671,-87.9365,1.334,7.19,1111122 
DISL,ioos:station:DISL:MHPA:1,2015-12-02T12:00:00Z,30.6671,-87.9365,1.274,7.78,1111122 
DISL,ioos:station:DISL:MHPA:1,2015-12-02T12:30:00Z,30.6671,-87.9365,1.224,7.77,1111122 
DISL,ioos:station:DISL:MHPA:1,2015-12-02T13:00:00Z,30.6671,-87.9365,1.173,7.59,1111122 
DISL,ioos:station:DISL:MHPA:1,2015-12-02T13:30:00Z,30.6671,-87.9365,1.104,7.6,1111122 
DISL,ioos:station:DISL:MHPA:1,2015-12-02T14:00:00Z,30.6671,-87.9365,1.071,7.5,1111122 
DISL,ioos:station:DISL:MHPA:1,2015-12-02T14:30:00Z,30.6671,-87.9365,1.04,7.29,1111122 
DISL,ioos:station:DISL:MHPA:1,2015-12-02T15:00:00Z,30.6671,-87.9365,0.987,7.5,1111122 
DISL,ioos:station:DISL:MHPA:1,2015-12-02T15:30:00Z,30.6671,-87.9365,0.973,7.47,1111122 
DISL,ioos:station:DISL:MHPA:1,2015-12-02T16:00:00Z,30.6671,-87.9365,0.977,7.51,1111122 
DISL,ioos:station:DISL:MHPA:1,2015-12-02T16:30:00Z,30.6671,-87.9365,0.955,7.57,1111122 
DISL,ioos:station:DISL:MHPA:1,2015-12-02T17:00:00Z,30.6671,-87.9365,0.926,7.44,1111122 
DISL,ioos:station:DISL:MHPA:1,2015-12-02T17:30:00Z,30.6671,-87.9365,0.936,7.56,1111122 
DISL,ioos:station:DISL:MHPA:1,2015-12-02T18:00:00Z,30.6671,-87.9365,0.925,7.54,1111122 
DISL,ioos:station:DISL:MHPA:1,2015-12-02T18:30:00Z,30.6671,-87.9365,0.903,7.53,1111122 
DISL,ioos:station:DISL:MHPA:1,2015-12-02T19:00:00Z,30.6671,-87.9365,0.907,7.58,1111122 
DISL,ioos:station:DISL:MHPA:1,2015-12-02T19:30:00Z,30.6671,-87.9365,0.912,7.81,1111122 
DISL,ioos:station:DISL:MHPA:1,2015-12-02T20:00:00Z,30.6671,-87.9365,0.908,7.89,1111122 
DISL,ioos:station:DISL:MHPA:1,2015-12-02T20:30:00Z,30.6671,-87.9365,0.953,7.92,1111122 
DISL,ioos:station:DISL:MHPA:1,2015-12-02T21:00:00Z,30.6671,-87.9365,1.028,8.02,1111122 
DISL,ioos:station:DISL:MHPA:1,2015-12-02T21:30:00Z,30.6671,-87.9365,1.05,8.06,1111122 
DISL,ioos:station:DISL:MHPA:1,2015-12-02T22:00:00Z,30.6671,-87.9365,1.085,8.1,1111122 
DISL,ioos:station:DISL:MHPA:1,2015-12-02T22:30:00Z,30.6671,-87.9365,1.097,8.09,1111122 
DISL,ioos:station:DISL:MHPA:1,2015-12-02T23:00:00Z,30.6671,-87.9365,1.104,8.03,1111122 
DISL,ioos:station:DISL:MHPA:1,2015-12-02T23:30:00Z,30.6671,-87.9365,1.122,8.15,1111122 
DISL,ioos:station:DISL:MHPA:1,2015-12-03T00:00:00Z,30.6671,-87.9365,1.122,8.08,1111122 
DISL,ioos:station:DISL:MHPA:1,2015-12-03T00:30:00Z,30.6671,-87.9365,1.134,8.08,1111122 
DISL,ioos:station:DISL:MHPA:1,2015-12-03T01:00:00Z,30.6671,-87.9365,1.14,8.12,1111122 
DISL,ioos:station:DISL:MHPA:1,2015-12-03T01:30:00Z,30.6671,-87.9365,1.172,8.02,1111122 
DISL,ioos:station:DISL:MHPA:1,2015-12-03T02:00:00Z,30.6671,-87.9365,1.188,7.97,1111122 
DISL,ioos:station:DISL:MHPA:1,2015-12-03T02:30:00Z,30.6671,-87.9365,1.212,8.07,1111122 
DISL,ioos:station:DISL:MHPA:1,2015-12-03T03:00:00Z,30.6671,-87.9365,1.178,8.09,1111122 
DISL,ioos:station:DISL:MHPA:1,2015-12-03T03:30:00Z,30.6671,-87.9365,1.169,8.12,1111122 
DISL,ioos:station:DISL:MHPA:1,2015-12-03T04:00:00Z,30.6671,-87.9365,1.161,8.05,1111122 
DISL,ioos:station:DISL:MHPA:1,2015-12-03T04:30:00Z,30.6671,-87.9365,1.145,7.99,1111122 
DISL,ioos:station:DISL:MHPA:1,2015-12-03T05:00:00Z,30.6671,-87.9365,1.156,7.99,1111122 
DISL,ioos:station:DISL:MHPA:1,2015-12-03T05:30:00Z,30.6671,-87.9365,1.173,7.95,1111122 
DISL,ioos:station:DISL:MHPA:1,2015-12-03T06:00:00Z,30.6671,-87.9365,1.165,7.92,1111122 
DISL,ioos:station:DISL:MHPA:1,2015-12-03T06:30:00Z,30.6671,-87.9365,1.17,7.9,1111122 
DISL,ioos:station:DISL:MHPA:1,2015-12-03T07:00:00Z,30.6671,-87.9365,1.133,7.9,1111122 
DISL,ioos:station:DISL:MHPA:1,2015-12-03T07:30:00Z,30.6671,-87.9365,1.123,7.85,1111122 
DISL,ioos:station:DISL:MHPA:1,2015-12-03T08:00:00Z,30.6671,-87.9365,1.087,7.92,1111122 
DISL,ioos:station:DISL:MHPA:1,2015-12-03T08:30:00Z,30.6671,-87.9365,1.07,7.84,1111122 
DISL,ioos:station:DISL:MHPA:1,2015-12-03T09:00:00Z,30.6671,-87.9365,1.024,7.84,1111122 
DISL,ioos:station:DISL:MHPA:1,2015-12-03T09:30:00Z,30.6671,-87.9365,0.984,7.73,1111122 
DISL,ioos:station:DISL:MHPA:1,2015-12-03T10:00:00Z,30.6671,-87.9365,0.965,7.78,1111122 
DISL,ioos:station:DISL:MHPA:1,2015-12-03T10:30:00Z,30.6671,-87.9365,0.944,7.75,1111122 
DISL,ioos:station:DISL:MHPA:1,2015-12-03T11:00:00Z,30.6671,-87.9365,0.93,7.74,1111122 
DISL,ioos:station:DISL:MHPA:1,2015-12-03T11:30:00Z,30.6671,-87.9365,0.943,7.7,1111122 
DISL,ioos:station:DISL:MHPA:1,2015-12-03T12:00:00Z,30.6671,-87.9365,0.939,7.71,1111122 
DISL,ioos:station:DISL:MHPA:1,2015-12-03T12:30:00Z,30.6671,-87.9365,0.922,7.74,1111122 
DISL,ioos:station:DISL:MHPA:1,2015-12-03T13:00:00Z,30.6671,-87.9365,0.898,7.55,1111122 
DISL,ioos:station:DISL:MHPA:1,2015-12-03T13:30:00Z,30.6671,-87.9365,0.864,7.65,1111122 
DISL,ioos:station:DISL:MHPA:1,2015-12-03T14:00:00Z,30.6671,-87.9365,0.833,7.63,1111122 
DISL,ioos:station:DISL:MHPA:1,2015-12-03T14:30:00Z,30.6671,-87.9365,0.822,7.53,1111122 
DISL,ioos:station:DISL:MHPA:1,2015-12-03T15:00:00Z,30.6671,-87.9365,0.807,7.7,1111122 
DISL,ioos:station:DISL:MHPA:1,2015-12-03T15:30:00Z,30.6671,-87.9365,0.801,7.83,1111122 
DISL,ioos:station:DISL:MHPA:1,2015-12-03T16:00:00Z,30.6671,-87.9365,0.808,7.83,1111122 
DISL,ioos:station:DISL:MHPA:1,2015-12-03T16:30:00Z,30.6671,-87.9365,0.825,7.74,1111122 
DISL,ioos:station:DISL:MHPA:1,2015-12-03T17:00:00Z,30.6671,-87.9365,0.842,7.88,1111122 
DISL,ioos:station:DISL:MHPA:1,2015-12-03T17:30:00Z,30.6671,-87.9365,0.841,7.84,1111122 
DISL,ioos:station:DISL:MHPA:1,2015-12-03T18:00:00Z,30.6671,-87.9365,0.83,7.95,1111122 
DISL,ioos:station:DISL:MHPA:1,2015-12-03T18:30:00Z,30.6671,-87.9365,0.824,8.07,1111122 
DISL,ioos:station:DISL:MHPA:1,2015-12-03T19:00:00Z,30.6671,-87.9365,0.814,8.09,1111122 
DISL,ioos:station:DISL:MHPA:1,2015-12-03T19:30:00Z,30.6671,-87.9365,0.801,7.89,1111122 
DISL,ioos:station:DISL:MHPA:1,2015-12-03T20:00:00Z,30.6671,-87.9365,0.798,8.15,1111122 
DISL,ioos:station:DISL:MHPA:1,2015-12-03T20:30:00Z,30.6671,-87.9365,0.82,8.19,1111122 
DISL,ioos:station:DISL:MHPA:1,2015-12-03T21:00:00Z,30.6671,-87.9365,0.836,8.17,1111122 
DISL,ioos:station:DISL:MHPA:1,2015-12-03T21:30:00Z,30.6671,-87.9365,0.875,8.12,1111122 
DISL,ioos:station:DISL:MHPA:1,2015-12-03T22:00:00Z,30.6671,-87.9365,0.921,8.2,1111122 
DISL,ioos:station:DISL:MHPA:1,2015-12-03T22:30:00Z,30.6671,-87.9365,0.971,8.15,1111122 
DISL,ioos:station:DISL:MHPA:1,2015-12-03T23:00:00Z,30.6671,-87.9365,0.979,8.23,1111122 
DISL,ioos:station:DISL:MHPA:1,2015-12-03T23:30:00Z,30.6671,-87.9365,0.949,8.23,1111122 
DISL,ioos:station:DISL:MHPA:1,2015-12-04T00:00:00Z,30.6671,-87.9365,0.915,8.21,1111122 
DISL,ioos:station:DISL:MHPA:1,2015-12-04T00:30:00Z,30.6671,-87.9365,0.913,8.22,1111122 
DISL,ioos:station:DISL:MHPA:1,2015-12-04T01:00:00Z,30.6671,-87.9365,0.928,8.31,1111122 
DISL,ioos:station:DISL:MHPA:1,2015-12-04T01:30:00Z,30.6671,-87.9365,0.922,8.24,1111122 
DISL,ioos:station:DISL:MHPA:1,2015-12-04T02:00:00Z,30.6671,-87.9365,0.912,8.19,1111122 
DISL,ioos:station:DISL:MHPA:1,2015-12-04T02:30:00Z,30.6671,-87.9365,0.907,8.21,1111122 
DISL,ioos:station:DISL:MHPA:1,2015-12-04T03:00:00Z,30.6671,-87.9365,0.901,8.16,1111122 
DISL,ioos:station:DISL:MHPA:1,2015-12-04T03:30:00Z,30.6671,-87.9365,0.889,8.24,1111122 
DISL,ioos:station:DISL:MHPA:1,2015-12-04T04:00:00Z,30.6671,-87.9365,0.875,8.2,1111122 
DISL,ioos:station:DISL:MHPA:1,2015-12-04T04:30:00Z,30.6671,-87.9365,0.874,8.25,1111122 
DISL,ioos:station:DISL:MHPA:1,2015-12-04T05:00:00Z,30.6671,-87.9365,0.861,8.27,1111122 
DISL,ioos:station:DISL:MHPA:1,2015-12-04T05:30:00Z,30.6671,-87.9365,0.833,8.44,1111122 
DISL,ioos:station:DISL:MHPA:1,2015-12-04T06:00:00Z,30.6671,-87.9365,0.805,8.5,1111122 
DISL,ioos:station:DISL:MHPA:1,2015-12-04T06:30:00Z,30.6671,-87.9365,0.782,7.7,1111122 
DISL,ioos:station:DISL:MHPA:1,2015-12-04T07:00:00Z,30.6671,-87.9365,0.765,8.73,1111122 
DISL,ioos:station:DISL:MHPA:1,2015-12-04T07:30:00Z,30.6671,-87.9365,0.759,8.64,1111122 
DISL,ioos:station:DISL:MHPA:1,2015-12-04T08:00:00Z,30.6671,-87.9365,0.78,8.6,1111122 
DISL,ioos:station:DISL:MHPA:1,2015-12-04T08:30:00Z,30.6671,-87.9365,0.798,8.53,1111122 
DISL,ioos:station:DISL:MHPA:1,2015-12-04T09:00:00Z,30.6671,-87.9365,0.795,8.51,1111122 
DISL,ioos:station:DISL:MHPA:1,2015-12-04T09:30:00Z,30.6671,-87.9365,0.813,8.45,1111122 
DISL,ioos:station:DISL:MHPA:1,2015-12-04T10:00:00Z,30.6671,-87.9365,0.831,8.41,1111122 
DISL,ioos:station:DISL:MHPA:1,2015-12-04T10:30:00Z,30.6671,-87.9365,0.832,8.33,1111122 
DISL,ioos:station:DISL:MHPA:1,2015-12-04T11:00:00Z,30.6671,-87.9365,0.823,8.27,1111122 
DISL,ioos:station:DISL:MHPA:1,2015-12-04T11:30:00Z,30.6671,-87.9365,0.816,8.24,1111122 
DISL,ioos:station:DISL:MHPA:1,2015-12-04T12:00:00Z,30.6671,-87.9365,0.822,8.21,1111122 
DISL,ioos:station:DISL:MHPA:1,2015-12-04T12:30:00Z,30.6671,-87.9365,0.837,8.29,1111122 
DISL,ioos:station:DISL:MHPA:1,2015-12-04T13:00:00Z,30.6671,-87.9365,0.83,8.34,1111122 
DISL,ioos:station:DISL:MHPA:1,2015-12-04T13:30:00Z,30.6671,-87.9365,0.811,8.33,1111122 
DISL,ioos:station:DISL:MHPA:1,2015-12-04T14:00:00Z,30.6671,-87.9365,0.821,8.33,1111122 
DISL,ioos:station:DISL:MHPA:1,2015-12-04T14:30:00Z,30.6671,-87.9365,0.838,8.43,1111122 
DISL,ioos:station:DISL:MHPA:1,2015-12-04T15:00:00Z,30.6671,-87.9365,0.838,8.51,1111122 
DISL,ioos:station:DISL:MHPA:1,2015-12-04T15:30:00Z,30.6671,-87.9365,0.836,8.58,1111122 
DISL,ioos:station:DISL:MHPA:1,2015-12-04T16:00:00Z,30.6671,-87.9365,0.841,8.67,1111122 
DISL,ioos:station:DISL:MHPA:1,2015-12-04T16:30:00Z,30.6671,-87.9365,0.845,8.64,1111122 
DISL,ioos:station:DISL:MHPA:1,2015-12-04T17:00:00Z,30.6671,-87.9365,0.846,8.53,1111122 
DISL,ioos:station:DISL:MHPA:1,2015-12-04T17:30:00Z,30.6671,-87.9365,0.868,8.47,1111122 
DISL,ioos:station:DISL:MHPA:1,2015-12-04T18:00:00Z,30.6671,-87.9365,0.891,8.29,1111122 
DISL,ioos:station:DISL:MHPA:1,2015-12-04T18:30:00Z,30.6671,-87.9365,0.894,8.49,1111122 
DISL,ioos:station:DISL:MHPA:1,2015-12-04T19:00:00Z,30.6671,-87.9365,0.9,8.58,1111122 
DISL,ioos:station:DISL:MHPA:1,2015-12-04T19:30:00Z,30.6671,-87.9365,0.9,8.61,1111122 
DISL,ioos:station:DISL:MHPA:1,2015-12-04T20:00:00Z,30.6671,-87.9365,0.91,8.61,1111122 
DISL,ioos:station:DISL:MHPA:1,2015-12-04T20:30:00Z,30.6671,-87.9365,0.908,8.56,1111122 
DISL,ioos:station:DISL:MHPA:1,2015-12-04T21:00:00Z,30.6671,-87.9365,0.897,8.66,1111122 
DISL,ioos:station:DISL:MHPA:1,2015-12-04T21:30:00Z,30.6671,-87.9365,0.906,8.66,1111122 
DISL,ioos:station:DISL:MHPA:1,2015-12-04T22:00:00Z,30.6671,-87.9365,0.919,9.01,1111122 
DISL,ioos:station:DISL:MHPA:1,2015-12-04T22:30:00Z,30.6671,-87.9365,0.917,9.0,1111122 
DISL,ioos:station:DISL:MHPA:1,2015-12-04T23:00:00Z,30.6671,-87.9365,0.93,9.22,1111122 
DISL,ioos:station:DISL:MHPA:1,2015-12-04T23:30:00Z,30.6671,-87.9365,0.96,9.07,1111122 
DISL,ioos:station:DISL:MHPA:1,2015-12-05T00:00:00Z,30.6671,-87.9365,0.963,9.55,1111122 
DISL,ioos:station:DISL:MHPA:1,2015-12-05T00:30:00Z,30.6671,-87.9365,0.963,8.94,1111122 
DISL,ioos:station:DISL:MHPA:1,2015-12-05T01:00:00Z,30.6671,-87.9365,0.962,8.8,1111122 
DISL,ioos:station:DISL:MHPA:1,2015-12-05T01:30:00Z,30.6671,-87.9365,0.948,8.82,1111122 
DISL,ioos:station:DISL:MHPA:1,2015-12-05T02:00:00Z,30.6671,-87.9365,0.937,8.92,1111122 
DISL,ioos:station:DISL:MHPA:1,2015-12-05T02:30:00Z,30.6671,-87.9365,0.952,8.92,1111122 
DISL,ioos:station:DISL:MHPA:1,2015-12-05T03:00:00Z,30.6671,-87.9365,0.978,8.84,1111122 
DISL,ioos:station:DISL:MHPA:1,2015-12-05T03:30:00Z,30.6671,-87.9365,0.975,8.78,1111122 
DISL,ioos:station:DISL:MHPA:1,2015-12-05T04:00:00Z,30.6671,-87.9365,0.957,8.76,1111122 
DISL,ioos:station:DISL:MHPA:1,2015-12-05T04:30:00Z,30.6671,-87.9365,0.967,8.77,1111122 
DISL,ioos:station:DISL:MHPA:1,2015-12-05T05:00:00Z,30.6671,-87.9365,0.964,8.86,1111122 
DISL,ioos:station:DISL:MHPA:1,2015-12-05T05:30:00Z,30.6671,-87.9365,0.976,9.01,1111122 
DISL,ioos:station:DISL:MHPA:1,2015-12-05T06:00:00Z,30.6671,-87.9365,0.971,9.05,1111122 
DISL,ioos:station:DISL:MHPA:1,2015-12-05T06:30:00Z,30.6671,-87.9365,0.965,9.0,1111122 
DISL,ioos:station:DISL:MHPA:1,2015-12-05T07:00:00Z,30.6671,-87.9365,0.971,8.91,1111122 
DISL,ioos:station:DISL:MHPA:1,2015-12-05T07:30:00Z,30.6671,-87.9365,0.98,9.32,1111122 
DISL,ioos:station:DISL:MHPA:1,2015-12-05T08:00:00Z,30.6671,-87.9365,0.975,9.37,1111122 
DISL,ioos:station:DISL:MHPA:1,2015-12-05T08:30:00Z,30.6671,-87.9365,0.968,9.51,1111122 
DISL,ioos:station:DISL:MHPA:1,2015-12-05T09:00:00Z,30.6671,-87.9365,0.98,9.7,1111122 
DISL,ioos:station:DISL:MHPA:1,2015-12-05T09:30:00Z,30.6671,-87.9365,0.992,9.76,1111122 
DISL,ioos:station:DISL:MHPA:1,2015-12-05T10:00:00Z,30.6671,-87.9365,1.011,9.94,1111122 
DISL,ioos:station:DISL:MHPA:1,2015-12-05T10:30:00Z,30.6671,-87.9365,1.003,9.16,1111122 
DISL,ioos:station:DISL:MHPA:1,2015-12-05T11:00:00Z,30.6671,-87.9365,0.99,9.0,1111122 
DISL,ioos:station:DISL:MHPA:1,2015-12-05T11:30:00Z,30.6671,-87.9365,0.975,8.96,1111122 
DISL,ioos:station:DISL:MHPA:1,2015-12-05T12:00:00Z,30.6671,-87.9365,0.953,9.07,1111122 
DISL,ioos:station:DISL:MHPA:1,2015-12-05T12:30:00Z,30.6671,-87.9365,0.931,9.19,1111122 
DISL,ioos:station:DISL:MHPA:1,2015-12-05T13:00:00Z,30.6671,-87.9365,0.91,9.15,1111122 
DISL,ioos:station:DISL:MHPA:1,2015-12-05T13:30:00Z,30.6671,-87.9365,0.896,8.88,1111122 
DISL,ioos:station:DISL:MHPA:1,2015-12-05T14:00:00Z,30.6671,-87.9365,0.894,8.71,1111122 
DISL,ioos:station:DISL:MHPA:1,2015-12-05T14:30:00Z,30.6671,-87.9365,0.886,8.82,1111122 
DISL,ioos:station:DISL:MHPA:1,2015-12-05T15:00:00Z,30.6671,-87.9365,0.88,8.96,1111122 
DISL,ioos:station:DISL:MHPA:1,2015-12-05T15:30:00Z,30.6671,-87.9365,0.878,9.01,1111122 
DISL,ioos:station:DISL:MHPA:1,2015-12-05T16:00:00Z,30.6671,-87.9365,0.883,8.94,1111122 
DISL,ioos:station:DISL:MHPA:1,2015-12-05T16:30:00Z,30.6671,-87.9365,0.883,8.91,1111122 
DISL,ioos:station:DISL:MHPA:1,2015-12-05T17:00:00Z,30.6671,-87.9365,0.884,9.1,1111122 
DISL,ioos:station:DISL:MHPA:1,2015-12-05T17:30:00Z,30.6671,-87.9365,0.87,8.95,1111122 
DISL,ioos:station:DISL:MHPA:1,2015-12-05T18:00:00Z,30.6671,-87.9365,0.868,9.02,1111122 
DISL,ioos:station:DISL:MHPA:1,2015-12-05T18:30:00Z,30.6671,-87.9365,0.89,9.1,1111122 
DISL,ioos:station:DISL:MHPA:1,2015-12-05T19:00:00Z,30.6671,-87.9365,0.889,9.02,1111122 
DISL,ioos:station:DISL:MHPA:1,2015-12-05T19:30:00Z,30.6671,-87.9365,0.875,9.12,1111122 
DISL,ioos:station:DISL:MHPA:1,2015-12-05T20:00:00Z,30.6671,-87.9365,0.897,9.09,1111122 
DISL,ioos:station:DISL:MHPA:1,2015-12-05T20:30:00Z,30.6671,-87.9365,0.919,9.17,1111122 
DISL,ioos:station:DISL:MHPA:1,2015-12-05T21:00:00Z,30.6671,-87.9365,0.933,9.2,1111122 
DISL,ioos:station:DISL:MHPA:1,2015-12-05T21:30:00Z,30.6671,-87.9365,0.954,9.29,1111122 
DISL,ioos:station:DISL:MHPA:1,2015-12-05T22:00:00Z,30.6671,-87.9365,0.98,9.25,1111122 
DISL,ioos:station:DISL:MHPA:1,2015-12-05T22:30:00Z,30.6671,-87.9365,1.025,9.25,1111122 
DISL,ioos:station:DISL:MHPA:1,2015-12-05T23:00:00Z,30.6671,-87.9365,1.041,9.37,1111122 
DISL,ioos:station:DISL:MHPA:1,2015-12-05T23:30:00Z,30.6671,-87.9365,1.061,9.23,1111122 
DISL,ioos:station:DISL:MHPA:1,2015-12-06T00:00:00Z,30.6671,-87.9365,1.087,9.4,1111122 
DISL,ioos:station:DISL:MHPA:1,2015-12-06T00:30:00Z,30.6671,-87.9365,1.099,9.26,1111122 
DISL,ioos:station:DISL:MHPA:1,2015-12-06T01:00:00Z,30.6671,-87.9365,1.116,9.26,1111122 
DISL,ioos:station:DISL:MHPA:1,2015-12-06T01:30:00Z,30.6671,-87.9365,1.12,9.21,1111122 
DISL,ioos:station:DISL:MHPA:1,2015-12-06T02:00:00Z,30.6671,-87.9365,1.141,8.95,1111122 
DISL,ioos:station:DISL:MHPA:1,2015-12-06T02:30:00Z,30.6671,-87.9365,1.154,9.08,1111122 
DISL,ioos:station:DISL:MHPA:1,2015-12-06T03:00:00Z,30.6671,-87.9365,1.16,9.11,1111122 
DISL,ioos:station:DISL:MHPA:1,2015-12-06T03:30:00Z,30.6671,-87.9365,1.169,8.99,1111122 
DISL,ioos:station:DISL:MHPA:1,2015-12-06T04:00:00Z,30.6671,-87.9365,1.163,9.09,1111122 
DISL,ioos:station:DISL:MHPA:1,2015-12-06T04:30:00Z,30.6671,-87.9365,1.148,9.27,1111122 
DISL,ioos:station:DISL:MHPA:1,2015-12-06T05:00:00Z,30.6671,-87.9365,1.135,9.26,1111122 
DISL,ioos:station:DISL:MHPA:1,2015-12-06T05:30:00Z,30.6671,-87.9365,1.123,9.2,1111122 
DISL,ioos:station:DISL:MHPA:1,2015-12-06T06:00:00Z,30.6671,-87.9365,1.098,9.1,1111122 
DISL,ioos:station:DISL:MHPA:1,2015-12-06T06:30:00Z,30.6671,-87.9365,1.075,9.21,1111122 
DISL,ioos:station:DISL:MHPA:1,2015-12-06T07:00:00Z,30.6671,-87.9365,1.067,9.26,1111122 
DISL,ioos:station:DISL:MHPA:1,2015-12-06T07:30:00Z,30.6671,-87.9365,1.046,9.27,1111122 
DISL,ioos:station:DISL:MHPA:1,2015-12-06T08:00:00Z,30.6671,-87.9365,1.025,9.49,1111122 
DISL,ioos:station:DISL:MHPA:1,2015-12-06T08:30:00Z,30.6671,-87.9365,1.019,9.42,1111122 
DISL,ioos:station:DISL:MHPA:1,2015-12-06T09:00:00Z,30.6671,-87.9365,0.995,9.39,1111122 
DISL,ioos:station:DISL:MHPA:1,2015-12-06T09:30:00Z,30.6671,-87.9365,0.97,9.31,1111122 
DISL,ioos:station:DISL:MHPA:1,2015-12-06T10:00:00Z,30.6671,-87.9365,0.957,9.26,1111122 
DISL,ioos:station:DISL:MHPA:1,2015-12-06T10:30:00Z,30.6671,-87.9365,0.949,9.21,1111122 
DISL,ioos:station:DISL:MHPA:1,2015-12-06T11:00:00Z,30.6671,-87.9365,0.935,9.17,1111122 
DISL,ioos:station:DISL:MHPA:1,2015-12-06T11:30:00Z,30.6671,-87.9365,0.935,9.12,1111122 
DISL,ioos:station:DISL:MHPA:1,2015-12-06T12:00:00Z,30.6671,-87.9365,0.93,9.03,1111122 
DISL,ioos:station:DISL:MHPA:1,2015-12-06T12:30:00Z,30.6671,-87.9365,0.923,9.08,1111122 
DISL,ioos:station:DISL:MHPA:1,2015-12-06T13:00:00Z,30.6671,-87.9365,0.917,8.97,1111122 
DISL,ioos:station:DISL:MHPA:1,2015-12-06T13:30:00Z,30.6671,-87.9365,0.913,8.95,1111122 
DISL,ioos:station:DISL:MHPA:1,2015-12-06T14:00:00Z,30.6671,-87.9365,0.916,8.69,1111122 
DISL,ioos:station:DISL:MHPA:1,2015-12-06T14:30:00Z,30.6671,-87.9365,0.911,8.74,1111122 
DISL,ioos:station:DISL:MHPA:1,2015-12-06T15:00:00Z,30.6671,-87.9365,0.909,8.72,1111122 
DISL,ioos:station:DISL:MHPA:1,2015-12-06T15:30:00Z,30.6671,-87.9365,0.906,8.93,1111122 